www.pogodaiklimat.ru

Погода и климат >> Архив погоды >> Бенин >> Натитингу


ПОГОДА в Натитингу

  • Прогноз погоды в Натитингу
  • Монитор погоды в Натитингу

АРХИВ ПОГОДЫ в Натитингу

Время (UTC), дата Ветер
(напр.,м/с)
 
Видим.   Явления Облачность Т
(С)
Тd
(С)
f
(%)
Тe
(С)
Тes
(С)
Комфортность P
(гПа)
Po
(гПа)
Тmin
(С)
Tmax
(С)
R
(мм)
R24
(мм)
S
(см)
09 19.04 Ю 3 10 км 9/0
[Cs]
+30.9 +22.8 62 +41 +49 опасность
перегрева
1009.7 963.0
12 19.04 ЮВ 3 10 км 8/3 600 м
[Cu med, cong Ci sp]
+34.1 +22.1 50 +43 +54 опасность
перегрева
1009.1 962.7
15 19.04 ЮЗ 2 10 км 8/1 600 м
[Cu med, cong Ci sp]
+37.0 +21.2 40 +44 +52 опасность
перегрева
1005.3 959.2
18 19.04 Ю 2 10 км 8/0
[Ci sp]
+35.5 +20.2 41 +42 +42 опасность
перегрева
1006.1 959.7 +37.5
21 19.04 ЮВ 2 10 км 8/0
[Ci sp]
+32.0 +20.4 50 +39 +39 очень
душно
1008.8 962.3
00 20.04 Ю 3 10 км 8/0
[Ci sp]
+29.8 +22.2 64 +39 +39 очень
душно
1008.9 962.5
03 20.04 Ю 2 10 км 8/0
[Ci sp]
+28.5 +22.8 71 +38 +38 очень
душно
1006.3 960.3
06 20.04 Ю 3 10 км 8/0
[Ac trans Ci sp]
+27.1 +23.1 79 +36 +37 очень
душно
1008.1 961.7 +26.0
09 20.04 Ю 3 10 км 9/3 600 м
[Cu med, cong Ci sp]
+30.0 +23.6 69 +41 +47 опасность
перегрева
1009.6 963.0
12 20.04 Ю 4 10 км 9/3 600 м
[Cu med, cong Ci sp]
+34.0 +22.7 52 +44 +52 опасность
перегрева
1007.4 961.0
15 20.04 Ю 2 10 км 9/4 600 м
[Cu med, cong Ci ing]
+35.4 +22.0 46 +44 +49 опасность
перегрева
1005.5 959.2
18 20.04 В 2 10 км 9/1 600 м
[Cu hum Ac cuf Ci sp]
+34.4 +19.0 40 +39 +39 очень
душно
1005.5 959.1 +36.5
21 20.04 штиль 0 10 км 6/0
[Ci sp]
+31.5 +23.0 61 +42 +42 опасность
перегрева
1007.3 960.8
00 21.04 ЮЗ 2 10 км 8/0
[Ci sp]
+30.0 +21.3 60 +38 +38 очень
душно
1007.9 961.5
03 21.04 Ю 3 10 км 8/0
[Ac trans Ci sp]
+28.5 +22.0 68 +37 +37 очень
душно
1006.1 959.8
06 21.04 Ю 4 10 км 8/0
[Ci sp]
+27.0 +22.7 77 +36 +36 очень
душно
1006.3 959.8 +27.0
09 21.04 Ю 4 10 км 8/0
[Ci sp]
+30.0 +22.4 64 +39 +46 очень
душно
1008.7 962.1
12 21.04 ЮЗ 2 10 км 8/1 600 м
[Cu hum Ci sp]
+34.7 +21.7 47 +43 +60 опасность
перегрева
1006.8 960.6
15 21.04 ЮЗ 2 10 км 9/9 600 м
[Cu med, cong Ac trans]
+36.7 +21.7 42 +45 +46 опасность
перегрева
1004.5 958.4
18 21.04 Ю 2 10 км 8/0
[Ac trans Ci sp]
+34.8 +20.6 44 +42 +42 опасность
перегрева
1004.7 958.3 +37.1
21 21.04 ЮВ 1 10 км 8/0
[Ci sp]
+32.2 +21.2 52 +40 +40 очень
душно
1006.0 959.6
00 22.04 Ю 1 10 км зарница 9/4 600 м
[Cb cap Ac As Ci sp]
+31.0 +22.6 61 +41 +41 опасность
перегрева
1006.7 960.5
03 22.04 С 2 6000 м гроза, ливневой дождь 10/4 600 м
[Cb cap Ac As]
+23.9 +20.5 81 +30 +30 очень
душно
1005.6 959.1
06 22.04 Ю 2 10 км {гроза, дождь} 9/0
[Ac As Ci sp]
+24.0 +20.4 80 +30 +30 очень
душно
1006.9 960.2 +21.2 14
09 22.04 Ю 3 10 км 8/0
[Ac trans Ci sp]
+29.5 +23.4 70 +40 +46 очень
душно
1008.4 961.9
12 22.04 Ю 4 10 км 8/0
[Ci sp]
+33.1 +23.2 56 +44 +56 опасность
перегрева
1007.4 961.0
15 22.04 ЮВ 2 10 км 8/0
[Ci sp]
+35.4 +22.7 48 +45 +54 опасность
перегрева
1004.8 957.6
18 22.04 ЮВ 2 10 км 9/3 600 м
[Cu med, cong Ac trans Ci sp]
+31.5 +19.5 49 +37 +37 очень
душно
1004.0 957.2 +36.0
21 22.04 ЮВ 3 10 км 8/0
[Ci sp]
+29.5 +21.4 62 +37 +37 очень
душно
1005.9 959.3
00 23.04 Ю 1 10 км 8/0
[Ac trans Ci sp]
+26.9 +20.9 70 +34 +34 очень
душно
1006.3 959.7
03 23.04 В 2 10 км 8/0
[Ac trans Ci sp]
+27.3 +20.2 65 +34 +34 очень
душно
1005.1 958.8
06 23.04 С 2 10 км гроза, ливневой дождь 9/4 600 м
[Cb cap Ac As]
+23.3 +21.5 90 +31 +31 очень
душно
1009.2 962.1 +22.5 1
09 23.04 С 5 10 км гроза, ливневой дождь 9/9 600 м
[Cb cap Ac As]
+22.2 +20.4 90 +29 +29 очень
душно
1011.1 963.6
12 23.04 СЗ 2 10 км слаб. дождь 8/0
[Ac As]
+23.8 +23.2 96 +32 +41 очень
душно
1012.8 965.2
15 23.04 ЮЗ 2 10 км 8/1 600 м
[Cu med, cong Ci sp]
+25.0 +22.1 84 +32 +41 очень
душно
1009.9 962.6
18 23.04 ЮВ 1 10 км {дождь} 8/0
[Ci sp]
+25.0 +22.8 88 +33 +33 очень
душно
1006.3 958.8 +25.0 92
21 23.04 СЗ 2 10 км 8/0
[Ci sp]
+25.0 +21.3 80 +32 +32 очень
душно
1009.4 961.7
00 24.04 ЮЗ 1 10 км 8/0
[Ac trans Ci sp]
+24.0 +22.1 89 +31 +31 очень
душно
1010.1 962.4
03 24.04 Ю 1 10 км 8/0
[Ac trans Ci sp]
+23.6 +22.3 92 +31 +31 очень
душно
1008.0 960.5
06 24.04 ЮЗ 1 10 км 9/0
[Ac As]
+23.7 +21.9 90 +31 +31 очень
душно
1011.4 963.8 +21.2
09 24.04 Ю 3 10 км 9/0
[Ac trans Ci sp]
+27.0 +21.1 70 +34 +39 очень
душно
1011.3 963.9
12 24.04 В 2 10 км 9/0
[Ac trans Ci sp]
+31.0 +23.2 63 +41 +54 опасность
перегрева
1010.7 963.5
15 24.04 СЗ 1 10 км 9/0
[Ac As Ci sp]
+34.3 +18.1 38 +38 +45 очень
душно
1007.9 961.1
18 24.04 З 2 10 км 9/0
[Ac trans Ci sp]
+30.9 +24.2 68 +43 +43 опасность
перегрева
1008.8 961.7 +34.5
21 24.04 штиль 0 10 км 8/0
[Ci sp]
+27.8 +26.0 90 +42 +42 опасность
перегрева
1010.3 963.1
00 25.04 ЮВ 1 10 км 8/0
[Ci sp]
+26.5 +25.1 92 +38 +38 очень
душно
1010.3 963.4
03 25.04 ЮВ 1 10 км 8/0
[Ci sp]
+26.0 +23.9 88 +36 +36 очень
душно
1008.8 962.1
06 25.04 ЮВ 1 10 км 9/0
[Ac trans Ci sp]
+25.5 +24.8 96 +36 +36 очень
душно
1010.1 963.0 +25.0
09 25.04 Ю 1 10 км 8/0
[Ci sp]
+30.0 +23.8 69 +41 +53 опасность
перегрева
1011.4 964.4
12 25.04 ЮЗ 3 10 км 9/3 600 м
[Cu med, cong Ci sp]
+33.5 +23.9 57 +45 +55 опасность
перегрева
1009.9 963.1
15 25.04 СЗ 1 10 км 9/5 600 м
[Cu med, cong Ci sp]
+34.5 +23.9 54 +46 +51 опасность
перегрева
1007.2 960.7
18 25.04 СЗ 1 10 км 8/0
[Ci sp]
+33.4 +22.8 54 +43 +43 опасность
перегрева
1006.9 960.2 +35.0
21 25.04 ЮВ 1 10 км 8/0
[Ci sp]
+30.5 +24.0 68 +42 +42 опасность
перегрева
1008.5 961.9
00 26.04 0 н/о +24.2 1007.5 961.0
03 26.04 Ю 1 10 км 8/0
[Ci sp]
+27.6 +23.5 78 +37 +37 очень
душно
1006.9 960.4

 

Местоположение метеостанции Натитингу (Бенин): широта 10.32 долгота 1.38 высота над уровнем моря 461 м.

В архиве по умолчанию представлена погода в Натитингу за последнюю неделю. Архивные данные за месяц целиком и за предыдущие месяцы, начиная с января 2011 года, Вы можете получить, выбрав интересующий диапазон дат из раскрывающегося списка и нажав кнопку "Ввод!".


*Определитесь, кто Вы:
робот инопланетянин человек

Внимание! Время в таблицах - всемирное. Для получения местного времени необходимо прибавить поправку, которая равна 1 ч.

Смотрите также архив погоды в соседних городах и на ближайших метеорологических станциях:

Погода в Ньамтугу (Того) (68 км)
Погода в Каре (Того) (89 км)
Погода в Манго (Того) (100 км)
Погода в Дапаоне (Того) (128 км)
Погода в Сокоде (Того) (151 км)
Погода в Параку (Бенин) (174 км)
Погода в Йенди (Гана) (181 км)
Погода в Канди (Бенин) (192 км)
Погода в Фада-Нгурме (Буркина-Фасо) (220 км)
Погода в Тамале (Гана) (261 км)

Пояснения к столбцам:

Ветер - указаны скорость ветра в м/с - средняя за 10 мин, порывы в срок и между сроками (в фигурных скобках) и направление, откуда дует ветер: С - северный, СВ - северо-восточный, В - восточный, ЮВ - юго-восточный, Ю - южный, ЮЗ - юго-западный, З - западный, СЗ - северо-западный.
Видимость - горизонтальная дальность видимости в метрах или километрах. При видимости от 1 до 10 км при отсутствии осадков обычно наблюдается дымка, при ухудшении видимости до 1 км и менее - туман. В сухую погоду видимость может ухудшаться дымом, пылью или мглою.
Явления - указаны атмосферные явления, наблюдавшиеся в срок или в последний час перед сроком; фигурными скобками обозначены явления, наблюдавшиеся между сроками (за 1-3 часа до срока); квадратными скобками обозначены град или гололедные отложения с указанием их диаметра в мм.
Облачность - указаны через наклонную черту общая и нижняя облачность в баллах и высота нижней границы облаков в метрах; квадратными скобками обозначены формы облаков: Ci - перистые, Cs - перисто-слоистые, Cc - перисто-кучевые, Ac - высококучевые, As - высокослоистые, Sc - слоисто-кучевые, Ns - слоисто-дождевые, Cu - кучевые, Cb - кучево-дождевые. Подробнее классификацию облаков см. в Атласе облаков (PDF).
T - Температура воздуха - температура, измеренная на высоте 2 м над землей.
Td - Температура точки росы - температура, при понижении до которой содержащийся в воздухе водяной пар достигнет насыщения.
f - Относительная влажность воздуха - влажноcть воздуха, измеренная на высоте 2 м над землей.
Te - Эффективная температура - температура, которую ощущает одетый по сезону человек в тени. Характеристика душности погоды. При расчете учитывается влияние влажности воздуха и скорости ветра на теплоощущения человека.
Tes - Эффективная температура на солнце - температура, которую ощущает человек, с поправкой на солнечный нагрев. Характеристика знойности погоды. Зависит от высоты солнца над горизонтом, облачности и скорости ветра. Ночью, в пасмурную погоду, а также при ветре 12 м/с и более поправка равна нулю.
P - Атмосферное давление - приведенное к уровню моря атмосферное давление.
Po - Атмосферное давление - измеренное на уровне метеостанции атмосферное давление.
Tmin - Минимальная температура - минимум температуры воздуха на высоте 2 м над землей.
Tmax - Максимальная температура - максимум температуры воздуха на высоте 2 м над землей.
R - Количество осадков - Количество выпавших осадков за период времени, мм. При наведении курсора мыши на число - период времени, за который выпало указанное количество осадков.
R24 - Количество осадков - Количество выпавших осадков за 24 часа, мм.
S - Снежный покров - Высота снежного покрова, см. При наведении курсора мыши на число - состояние снежного покрова и степень покрытия местности в баллах.